Weather History for Russellville, AR

Change the Weather History Date:

Sunday, October 28, 2012

  Actual Average (KHOT) Record (KHOT)
Temperature  
Mean Temperature 46 °F -  
Max Temperature 61 °F 71 °F 87 °F (1977)
Min Temperature 33 °F 46 °F 31 °F (1993)
Degree Days  
Heating Degree Days 18    
Moisture  
Dew Point 31 °F    
Average Humidity 63    
Maximum Humidity 89    
Minimum Humidity 28    
Precipitation  
Precipitation 0.00 in - - ()
Sea Level Pressure  
Sea Level Pressure 30.23 in    
Wind  
Wind Speed 2 mph (NW)    
Max Wind Speed 9 mph    
Max Gust Speed -    
Visibility 10 miles    
Events      
Averages and records for this station are not official NWS values.
T = Trace of Precipitation, MM = Missing Value Source: NWS Daily Summary

Daily Weather History Graph

Daily Weather History Graph

Search for Another Location

Airport:

Trip Planner

Search our weather history database for the weather conditions in past years. The results will help you decide how hot, cold, wet, or windy it might be!

Date:

Astronomy

Oct. 28, 2012 Rise Set
Actual Time 7:30 AM CDT 6:21 PM CDT
Civil Twilight 7:04 AM CDT 6:47 PM CDT
Nautical Twilight 6:34 AM CDT 7:17 PM CDT
Astronomical Twilight 6:04 AM CDT 7:46 PM CDT
Moon 5:39 PM CDT (10/28) 6:25 AM CDT (10/28)
Length of Visible Light 11h 42m
Length of Day
10h 50m
Waxing Gibbous, 99% of the Moon is Illuminated
Oct 28
Waxing Gibbous
Oct 29
Full
Nov 6
Last Quarter
Nov 13
New
Nov 20
First Quarter

Hourly Weather History & Observations

Time (CDT) Temp. Windchill Dew Point Humidity Pressure Visibility Wind Dir Wind Speed Gust Speed Precip Events Conditions
12:53 AM 36.0 °F - 30.9 °F 82% 30.22 in 10.0 mi Calm Calm - N/A   Clear
1:53 AM 37.9 °F - 30.9 °F 76% 30.22 in 10.0 mi Calm Calm - N/A   Clear
2:53 AM 34.0 °F - 30.9 °F 89% 30.24 in 10.0 mi Calm Calm - N/A   Clear
3:53 AM 34.0 °F - 30.0 °F 85% 30.23 in 10.0 mi Calm Calm - N/A   Clear
4:53 AM 34.0 °F 31.0 °F 28.9 °F 82% 30.22 in 10.0 mi North 3.5 mph - N/A   Clear
5:53 AM 35.1 °F - 30.0 °F 82% 30.23 in 10.0 mi Calm Calm - N/A   Clear
6:53 AM 34.0 °F - 30.0 °F 85% 30.23 in 10.0 mi Calm Calm - N/A   Clear
7:53 AM 33.1 °F 30.0 °F 28.9 °F 85% 30.26 in 10.0 mi North 3.5 mph - N/A   Clear
8:53 AM 42.1 °F 39.2 °F 30.9 °F 65% 30.28 in 10.0 mi NNW 4.6 mph - N/A   Clear
9:53 AM 45.0 °F 40.1 °F 30.9 °F 58% 30.27 in 10.0 mi North 9.2 mph - N/A   Clear
10:53 AM 48.0 °F - 30.9 °F 52% 30.27 in 10.0 mi NNW 8.1 mph - N/A   Clear
11:53 AM 51.1 °F - 30.0 °F 44% 30.27 in 10.0 mi Variable 3.5 mph - N/A   Clear
12:53 PM 54.0 °F - 28.9 °F 38% 30.25 in 10.0 mi North 3.5 mph - N/A   Clear
1:53 PM 55.9 °F - 27.0 °F 33% 30.22 in 10.0 mi Variable 3.5 mph - N/A   Clear
2:53 PM 59.0 °F - 28.9 °F 32% 30.19 in 10.0 mi West 6.9 mph - N/A   Clear
3:53 PM 60.1 °F - 28.9 °F 31% 30.18 in 10.0 mi WSW 5.8 mph - N/A   Clear
4:53 PM 60.1 °F - 27.0 °F 28% 30.17 in 10.0 mi Calm Calm - N/A   Clear
5:53 PM 55.9 °F - 30.9 °F 39% 30.17 in 10.0 mi WNW 3.5 mph - N/A   Clear
6:53 PM 46.9 °F - 35.1 °F 63% 30.19 in 10.0 mi Calm Calm - N/A   Clear
8:53 PM 42.1 °F - 34.0 °F 73% 30.22 in 10.0 mi Calm Calm - N/A   Clear
9:53 PM 41.0 °F - 33.1 °F 73% 30.22 in 10.0 mi Calm Calm - N/A   Clear
10:53 PM 39.0 °F - 33.1 °F 79% 30.24 in 10.0 mi Calm Calm - N/A   Clear
11:53 PM 37.0 °F 34.5 °F 32.0 °F 82% 30.25 in 10.0 mi South 3.5 mph - N/A   Clear